Location: Saratoga Springs
(43.0831°N, 73.7850°W)
Time: 12:03:27
(UTC-04:00)

Transit 4A - Pass Details

Date: 22 April 2024
Orbit: 871 x 971 km, 66.8° (Epoch: 20 May)

Event Time Altitude Azimuth Distance (km) Brightness Sun altitude
Rises 22:00:55 0° 327° (NNW) 3,468 12.3 -21.7°
Reaches altitude 10° 22:03:24 10° 327° (NNW) 2,527 11.3 -22.1°
Maximum altitude 22:09:14 79° 241° (WSW) 897 7.8 -22.8°
Enters shadow 22:10:58 48° 165° (SSE) 1,141 8.0 -23.0°
